Total_Precipitation_Accumulation
0.02 0.02 0.01 0.01 0.00 0.00 0.00 0.00 0.00 0.00 0.00 0.00 0.00 0.00 0.00 0.00 0.00 0.00 0.00 0.00 0.00 0.00 0.00 0.00 0.00 0.00 0.00 0.00 0.00 0.00 0.00 0.00 0.01 0.02 0.18 0.25 0.17 0.26 0.11 0.01 0.04 0.21 1.07 0.42 0.24
0.03 0.03 0.02 0.02 0.01 0.01 0.00 0.00 0.00 0.00 0.00 0.00 0.00 0.00 0.00 0.00 0.00 0.00 0.00 0.00 0.00 0.00 0.00 0.00 0.00 0.00 0.00 0.00 0.00 0.00 0.00 0.00 0.03 0.08 0.25 0.33 0.04 0.18 0.07 0.03 0.19 0.63 1.02 0.34 0.21
0.01 0.02 0.02 0.01 0.00 0.00 0.01 0.00 0.00 0.00 0.00 0.00 0.00 0.00 0.00 0.00 0.00 0.00 0.00 0.00 0.00 0.00 0.00 0.00 0.00 0.00 0.00 0.00 0.00 0.00 0.00 0.00 0.00 0.06 0.10 0.29 0.01 0.05 0.03 0.06 0.42 0.46 0.60 0.37 0.34
0.01 0.01 0.02 0.01 0.00 0.00 0.00 0.00 0.00 0.00 0.00 0.00 0.00 0.00 0.00 0.00 0.00 0.00 0.00 0.00 0.00 0.00 0.00 0.00 0.00 0.00 0.00 0.00 0.00 0.00 0.00 0.00 0.00 0.00 0.00 0.00 0.07 0.15 0.09 0.10 0.21 0.45 0.47 0.33 0.41
0.03 0.02 0.01 0.01 0.01 0.01 0.00 0.00 0.00 0.00 0.00 0.00 0.00 0.00 0.00 0.00 0.00 0.00 0.00 0.00 0.00 0.00 0.00 0.00 0.00 0.00 0.00 0.00 0.00 0.00 0.00 0.00 0.00 0.01 0.00 0.01 0.09 0.11 0.01 0.05 0.22 0.39 0.26 0.25 0.29
0.05 0.04 0.03 0.03 0.02 0.01 0.00 0.00 0.00 0.00 0.00 0.00 0.00 0.00 0.00 0.00 0.00 0.00 0.00 0.00 0.00 0.00 0.00 0.00 0.00 0.00 0.00 0.00 0.00 0.00 0.00 0.00 0.00 0.00 0.00 0.00 0.18 0.02 0.11 0.13 0.30 0.94 0.29 0.16 0.19
0.03 0.03 0.03 0.03 0.03 0.03 0.01 0.00 0.00 0.00 0.00 0.00 0.00 0.00 0.00 0.00 0.00 0.00 0.00 0.00 0.00 0.00 0.00 0.00 0.00 0.00 0.00 0.00 0.00 0.00 0.00 0.00 0.04 0.02 0.00 0.02 0.06 0.02 0.16 0.27 0.40 0.34 0.16 0.04 0.04
0.05 0.04 0.05 0.04 0.03 0.02 0.01 0.00 0.00 0.00 0.00 0.00 0.00 0.00 0.00 0.00 0.00 0.00 0.00 0.00 0.00 0.00 0.00 0.00 0.00 0.00 0.00 0.00 0.00 0.00 0.00 0.00 0.05 0.01 0.00 0.01 0.13 0.25 0.31 0.13 0.33 0.47 0.10 0.03 0.00
0.12 0.09 0.08 0.11 0.10 0.08 0.06 0.02 0.00 0.00 0.00 0.00 0.00 0.00 0.00 0.00 0.00 0.00 0.00 0.00 0.00 0.00 0.00 0.00 0.00 0.00 0.00 0.01 0.00 0.00 0.00 0.00 0.00 0.00 0.00 0.00 0.00 0.03 0.15 0.27 0.39 0.29 0.04 0.00 0.00
0.07 0.06 0.07 0.12 0.21 0.20 0.12 0.05 0.01 0.01 0.00 0.00 0.01 0.01 0.00 0.00 0.00 0.00 0.00 0.01 0.01 0.00 0.00 0.00 0.00 0.00 0.00 0.00 0.00 0.00 0.00 0.00 0.00 0.00 0.00 0.00 0.00 0.00 0.02 0.06 0.06 0.05 0.02 0.01 0.00
0.14 0.09 0.06 0.09 0.20 0.23 0.12 0.05 0.03 0.01 0.00 0.00 0.00 0.00 0.00 0.00 0.00 0.00 0.00 0.00 0.00 0.00 0.02 0.00 0.00 0.00 0.00 0.00 0.00 0.00 0.00 0.00 0.00 0.00 0.00 0.00 0.00 0.00 0.00 0.01 0.03 0.04 0.03 0.01 0.00
0.31 0.24 0.16 0.21 0.34 0.27 0.11 0.06 0.02 0.00 0.01 0.00 0.00 0.00 0.00 0.00 0.00 0.00 0.00 0.00 0.00 0.00 0.01 0.00 0.00 0.00 0.00 0.00 0.00 0.00 0.00 0.00 0.00 0.00 0.00 0.00 0.00 0.00 0.00 0.00 0.00 0.01 0.01 0.00 0.00
0.47 0.44 0.43 0.49 0.41 0.21 0.05 0.02 0.03 0.02 0.06 0.01 0.00 0.00 0.00 0.00 0.00 0.00 0.00 0.00 0.00 0.00 0.00 0.01 0.01 0.00 0.00 0.00 0.00 0.00 0.00 0.00 0.00 0.00 0.00 0.00 0.00 0.00 0.00 0.01 0.01 0.01 0.00 0.00 0.00
0.64 0.59 0.75 0.82 0.56 0.20 0.15 0.04 0.07 0.20 0.74 0.16 0.00 0.00 0.00 0.00 0.00 0.00 0.00 0.00 0.00 0.00 0.00 0.02 0.00 0.00 0.00 0.00 0.00 0.01 0.00 0.00 0.00 0.00 0.02 0.00 0.00 0.01 0.00 0.00 0.00 0.01 0.01 0.01 0.00
0.86 0.93 1.01 0.64 0.28 0.17 0.15 0.11 0.20 0.74 2.32 0.30 0.00 0.00 0.00 0.00 0.00 0.00 0.00 0.00 0.00 0.00 0.00 0.01 0.00 0.00 0.00 0.00 0.00 0.01 0.00 0.00 0.00 0.00 0.01 0.02 0.00 0.02 0.00 0.00 0.00 0.00 0.01 0.01 0.01
1.13 1.25 1.24 1.14 0.61 0.23 0.12 0.19 0.73 2.26 2.39 0.17 0.00 0.00 0.00 0.00 0.00 0.00 0.00 0.00 0.00 0.00 0.00 0.01 0.01 0.01 0.01 0.00 0.00 0.00 0.00 0.00 0.00 0.00 0.00 0.01 0.02 0.01 0.01 0.01 0.04 0.08 0.05 0.02 0.04
1.83 1.79 1.43 1.06 0.94 0.38 0.34 0.84 2.31 2.78 0.80 0.07 0.00 0.00 0.00 0.00 0.00 0.00 0.00 0.01 0.06 0.10 0.02 0.00 0.00 0.01 0.01 0.00 0.00 0.00 0.02 0.06 0.13 0.05 0.02 0.05 0.05 0.03 0.00 0.01 0.09 0.12 0.03 0.05 0.19
2.48 2.50 2.19 1.76 0.96 0.68 0.98 2.40 3.33 1.25 0.18 0.03 0.00 0.00 0.04 0.03 0.03 0.03 0.06 0.09 0.09 0.17 0.09 0.02 0.01 0.01 0.01 0.00 0.04 0.02 0.03 0.24 0.36 0.09 0.07 0.06 0.02 0.01 0.01 0.04 0.09 0.13 0.09 0.16 0.30
2.90 3.23 3.38 2.97 1.61 1.33 2.10 3.67 2.13 0.57 0.21 0.15 0.03 0.07 0.07 0.08 0.09 0.10 0.19 0.35 0.43 0.47 0.59 0.25 0.10 0.01 0.00 0.01 0.04 0.12 0.08 0.08 0.32 0.09 0.10 0.01 0.00 0.00 0.01 0.03 0.06 0.09 0.13 0.28 0.31
2.68 3.21 2.99 2.33 2.18 2.54 3.58 3.09 1.08 0.24 0.09 0.07 0.19 0.19 0.09 0.07 0.12 0.25 0.47 0.47 0.28 0.36 0.53 0.49 0.42 0.05 0.05 0.03 0.02 0.12 0.10 0.25 0.40 0.40 0.23 0.02 0.01 0.02 0.03 0.03 0.03 0.09 0.21 0.56 0.48
2.82 3.38 2.25 2.13 3.73 5.16 4.49 2.11 0.65 0.08 0.05 0.16 0.18 0.20 0.14 0.14 0.19 0.42 0.69 0.59 0.17 0.16 0.32 0.52 0.57 0.23 0.29 0.31 0.15 0.28 0.44 0.52 0.78 0.71 0.87 0.47 0.11 0.06 0.11 0.13 0.14 0.31 0.46 0.56 0.86
3.69 3.52 1.99 2.34 4.09 4.34 2.71 0.89 0.22 0.05 0.04 0.10 0.11 0.13 0.16 0.16 0.23 0.32 0.54 0.42 0.16 0.18 0.19 0.40 0.57 0.24 0.12 0.34 0.15 0.12 0.31 0.52 1.70 1.27 0.93 0.90 0.62 0.23 0.24 0.31 0.39 0.70 0.89 0.89 0.96
4.74 3.52 3.40 3.29 3.35 2.01 0.93 0.39 0.16 0.09 0.08 0.11 0.09 0.11 0.12 0.15 0.38 0.14 0.18 0.05 0.03 0.13 0.38 0.44 0.65 0.49 0.26 0.40 0.29 0.25 0.22 0.27 0.66 1.08 0.94 1.16 0.84 0.50 0.44 0.47 0.51 1.07 1.21 1.15 1.15
4.82 5.31 5.91 5.42 2.53 1.10 0.94 0.82 0.50 0.17 0.14 0.19 0.24 0.22 0.24 0.24 0.33 0.25 0.13 0.11 0.03 0.04 0.14 0.56 0.72 0.66 0.59 0.34 0.40 0.47 0.32 0.23 0.77 1.33 0.64 0.52 0.34 0.29 0.32 0.41 0.64 1.42 1.53 1.51 1.28
5.85 3.44 2.47 3.24 2.30 1.05 0.81 0.88 0.58 0.43 0.23 0.18 0.27 0.18 0.29 0.37 0.24 0.18 0.22 0.18 0.12 0.07 0.06 0.36 0.68 0.46 0.25 0.05 0.04 0.20 0.28 0.35 0.72 0.53 0.68 0.31 0.19 0.23 0.41 0.65 0.70 0.86 1.20 1.18 1.32
5.30 2.15 1.00 0.64 0.47 0.76 1.03 0.93 0.54 0.34 0.41 0.40 0.33 0.20 0.24 0.37 0.28 0.24 0.27 0.47 0.38 0.35 0.34 0.42 0.58 0.28 0.23 0.07 0.07 0.21 0.52 0.50 0.48 0.34 0.17 0.10 0.10 0.20 0.45 0.66 0.60 0.75 0.77 1.64 1.24
3.68 1.02 1.21 1.18 0.93 1.17 0.90 0.55 0.37 0.27 0.27 0.17 0.24 0.39 0.35 0.28 0.29 0.40 0.39 0.41 0.53 0.65 0.67 0.66 0.75 0.71 0.55 0.11 0.40 1.15 0.49 0.56 1.21 0.54 0.41 0.65 0.57 0.54 0.73 0.79 0.76 1.33 2.21 1.65 1.01